{"data":{"norad_id":50814,"intl_designator":"2022-001M","name":"STARLINK-3324","alt_names":[],"object_type":"PAYLOAD","status":"ACTIVE","operator":null,"country":"US","launch_date":"2022-01-06","launch_site_code":"AFETR","launch_vehicle":null,"mission":null,"orbit_class":"UNKNOWN","rcs_meters":null,"size_class":null,"mass_kg":null,"dimensions":null,"purposes":["comms"],"wikipedia_slug":null,"has_3d_model":false,"image_url":null,"decayed_at":null,"tle_current":{"epoch":"2026-09-19T21:33:00.540288Z","epoch_age_seconds":96976,"freshness":"FRESH","line1":"1 50814U 22001M   26262.89792292 -.00000003  00000+0  11663-4 0  9993","line2":"2 50814  53.1619   6.5677 0001124  74.9579 285.1547 15.31701592259872","mean_motion":15.31701592,"eccentricity":0.0001124,"inclination_deg":53.1619,"raan_deg":6.5677,"arg_perigee_deg":74.9579,"mean_anomaly_deg":285.1547,"bstar":1.1663e-5,"rev_number":25987,"period_min":94.013090246889,"perigee_km":469.96543631975,"apogee_km":471.50506280145,"semimajor_km":6848.8722495606,"source":"CELESTRAK","updated_at":"2026-09-20T09:00:39.576648Z"}}}